Orbital Elements at Epoch 2459000.5 (2020-May-31.0) TDB
Reference: JPL 20 (heliocentric ecliptic J2000)
Element | Value | Uncertainty (1-sigma) | Units |
e | .2049273391281886 | 3.8989e-08 | |
a | 3.123149674510387 | 2.3847e-08 | au |
q | 2.483130922013905 | 1.2632e-07 | au |
i | 15.92655648697877 | 5.6851e-06 | deg |
node | 226.7961935758474 | 1.7126e-05 | deg |
peri | 66.61861560459499 | 2.3756e-05 | deg |
M | 254.3105225407415 | 2.0252e-05 | deg |
tp | 2459592.357116218747 (2022-Jan-12.85711622) | 0.00011836 | TDB |
period | 2015.986519763836 5.52 | 2.309e-05 6.322e-08 | d yr |
n | .1785726226196058 | 2.0453e-09 | deg/d |
Q | 3.763168427006869 | 2.8734e-08 | au |
|
| | Orbit Determination Parameters
Additional Information
|